Regional Weather Roundup
Issued by NWS

Home | Current Version | Previous Version | Text Only | Print | Product List | Glossary On
Versions: 1 2 3 4 5 6 7 8 9 10 11 12 13 14 15 16 17 18 19 20 21 22 23 24 25 26 27 28 29 30 31 32 33 34 35 36 37 38 39 40 41 42 43 44 45 46 47 48 49 50
000
ASUS43 KLOT 261603
RWRIL

ILLINOIS REGIONAL WEATHER ROUNDUP
NATIONAL WEATHER SERVICE CHICAGO/ROMEOVILLE IL
1100 AM CDT SUN MAR 26 2017

NOTE: "FAIR" INDICATES FEW OR NO CLOUDS BELOW 12,000 FEET WITH NO
SIGNIFICANT WEATHER AND/OR OBSTRUCTIONS TO VISIBILITY.

* THESE STATIONS ARE NOT UNDER NWS QUALITY CONTROL. THEY ALSO MAY NOT
  REPORT WEATHER SUCH AS PRECIPITATION OR FOG.

ILZ001-002-007-009-015-016-024-261700-
NORTHWEST ILLINOIS

CITY           SKY/WX    TMP DP  RH WIND       PRES   REMARKS
MOLINE         CLOUDY    56  52  86 SW8       29.81S
STERLING*      CLOUDY    55  52  89 VRB5      29.83S
SAVANNA*       CLOUDY    51  50  97 NE3       29.83S FOG
$$

ILZ003-004-008-010-011-017-018-261700-
NORTH CENTRAL ILLINOIS

CITY           SKY/WX    TMP DP  RH WIND       PRES   REMARKS
ROCKFORD       CLOUDY    52  49  89 NE5       29.85F FOG
FREEPORT*      FOG       48  47  99 E6        29.84F VSB 1
ROCHELLE*      CLOUDY    55  53  91 SW8       29.84R
DE KALB*       CLOUDY    56  53  89 SW10      29.84S
PERU*          CLOUDY    54  50  86 SW9       29.84S
$$

ILZ005-006-012>014-019>023-261700-
NORTHEAST ILLINOIS

CITY           SKY/WX    TMP DP  RH WIND       PRES   REMARKS
CHICAGO-OHARE  RAIN      56  53  90 S7        29.83F FOG
CHICAGO-MIDWAY CLOUDY    58  56  93 S9        29.84F
AURORA         CLOUDY    58  54  86 SW7       29.83F
LANSING*       CLOUDY    58  58  99 S9        29.86S
JOLIET*        CLOUDY    60  56  88 SW8       29.84F
WAUKEGAN       HVY RAIN  45  45 100 E3        29.85S VSB 3/4
DUPAGE AIRPORT CLOUDY    57  56  96 S7        29.83F FOG
WHEELING       CLOUDY    53  53 100 S5        29.85S FOG
MORRIS*        CLOUDY    58  55  88 S9        29.83S
$$

LMZ740>746-261700-
SOUTHERN LAKE MICHIGAN

STATION/POSITION SKY/WX   TEMP    WIND        PRES    VSBY  WAVE
                          AIR SEA DIR/SP/G                  HT/PER
                          (F)     (DEG/KT/KT) (MB)    (MI)  (FT/S)
HARRISON CRIB              45     160/ 10/ 11   N/A
BURNHAM HARBOR             46      CALM  /  1   N/A
CALUMET HARBOR             56     150/  7/ 10 1010.4S
BURNS HARBOR               56     170/  8/ 14 1011.9S
MICHIGAN CITY              54     130/  7/ 10   N/A
$$

ILZ025>027-034>036-040-047-049-050-058-095>099-261700-
WEST-CENTRAL ILLINOIS

CITY           SKY/WX    TMP DP  RH WIND       PRES   REMARKS
QUINCY         CLOUDY    48  47  96 W12       29.87R
GALESBURG*     CLOUDY    50  50 100 S13       29.82S FOG
MACOMB*        CLOUDY    50  49  98 SW10      29.87R
JACKSONVILLE*  DRIZZLE   51  50  95 SW13      29.87S
PITTSFIELD*    CLOUDY    51  49  92 W9        29.89R
$$

ILZ028>032-037-038-041>044-048-051>054-059>061-261700-
CENTRAL ILLINOIS

CITY           SKY/WX    TMP DP  RH WIND       PRES   REMARKS
PONTIAC        CLOUDY    58  54  88 S14       29.86S
BLOOMINGTON    CLOUDY    55  50  83 S21       29.86S
DECATUR        CLOUDY    56  50  80 SW13G21   29.88S
PEORIA         LGT RAIN  53  52  96 SW12      29.85S FOG
SPRINGFIELD    CLOUDY    53  50  89 SW12      29.88S FOG
TAYLORVILLE    NOT AVBL
$$

ILZ033-039-045-046-055>057-062-063-261700-
EAST-CENTRAL ILLINOIS

CITY           SKY/WX    TMP DP  RH WIND       PRES   REMARKS
CHAMPAIGN      CLOUDY    59  50  72 S18       29.87S
RANTOUL*       PTSUNNY   61  55  82 SW10      29.87S
MATTOON        CLOUDY    57  54  89 SW7       29.88S
PARIS*         CLOUDY    60  56  87 S15       29.90S
$$

ILZ079-100>102-261700-
SOUTHWEST ILLINOIS

CITY           SKY/WX    TMP DP  RH WIND       PRES   REMARKS
ALTON          CLOUDY    52  48  87 SW9       29.91S
BELLEVILLE     CLOUDY    53  50  89 SW10      29.91S
CAHOKIA*       CLOUDY    53  47  79 SW8       29.92R
SPARTA*        CLOUDY    53  46  79 SW10      29.95R
$$

ILZ064>066-069>071-074>076-080>082-084>086-088>090-092>094-261700-
SOUTH-CENTRAL ILLINOIS

CITY           SKY/WX    TMP DP  RH WIND       PRES   REMARKS
CARBONDALE     CLOUDY    57  49  74 W13G22    29.95R
CAIRO*         CLOUDY    55  50  82 SW9       29.97S
EFFINGHAM*     CLOUDY    58  53  81 S10       29.92S
MARION         CLOUDY    57  50  77 SW9       29.96R
MT. VERNON     CLOUDY    56  50  80 SW15      29.94R
CENTRALIA*     CLOUDY    54  51  87 SW10      29.92S
SALEM*         CLOUDY    56  51  81 SW13      29.92R
$$

ILZ067-068-072-073-078-083-087-091-261700-
SOUTHEAST ILLINOIS

CITY           SKY/WX    TMP DP  RH WIND       PRES   REMARKS
LAWRENCEVILLE  CLOUDY    59  57  93 S12       29.93R
FLORA*         CLOUDY    58  53  82 SW13      29.93R
FAIRFIELD*     CLOUDY    56  54  91 SW6       29.93S
HARRISBURG*    CLOUDY    58  53  83 SW12G17   29.95S
ROBINSON*      CLOUDY    59  54  84 SW16      29.92S
CARMI*         CLOUDY    58  56  95 SW8       29.94S
$$

ABBREVIATIONS USED IN REMARKS
   TC - TEMPERATURE IN CELSIUS
  WCI - WIND CHILL INDEX
   HX - HEAT INDEX
  VSB - VISIBILITY
$$





USA.gov is the U.S. government's official web portal to all federal, state and local government web resources and services.